Tracking 29892 objects as of 21-Nov-2024
HD Live streaming from Space Station
objects crossing your sky now

ORBCOMM FM 15

Track ORBCOMM FM 15 now!
10-day predictions
ORBCOMM FM 15 is classified as:


NORAD ID: 25418
Int'l Code: 1998-046F
Perigee: 771.9 km
Apogee: 776.9 km
Inclination: 45.0 °
Period: 100.2 minutes
Semi major axis: 7145 km
RCS: 0.6025 m2 (medium)
Launch date: August 2, 1998
Source: ORBCOMM (ORB)
Launch site: Pegasus launched from Eastern Range Air Space (ERAS)
Your satellite tracking list
Your tracking list is empty




NASA's NSSDC Master Catalog

Two Line Element Set (TLE):
1 25418U 98046F   24325.88453141  .00002660  00000-0  92984-3 0  9996
2 25418  44.9967  85.7385 0003553 298.5064  61.5426 14.37349358374260
Source of the keplerian elements: AFSPC